Regional Weather Roundup
Issued by NWS

Home | Current Version | Previous Version | Text Only | Print | Product List | Glossary Off
Versions: 1 2 3 4 5 6 7 8 9 10 11 12 13 14 15 16 17 18 19 20 21 22 23 24 25 26 27 28 29 30 31 32 33 34 35 36 37 38 39 40 41 42 43 44 45 46 47 48 49 50

605
ASUS43 KBIS 211710
RWRND

NORTH DAKOTA REGIONAL WEATHER ROUNDUP
NATIONAL WEATHER SERVICE BISMARCK ND
1200 PM CDT SAT APR 21 2018

NOTE: "FAIR" INDICATES FEW OR NO CLOUDS BELOW 12,000 FEET WITH NO
SIGNIFICANT WEATHER AND/OR OBSTRUCTIONS TO VISIBILITY.


NDZ001>003-009>011-017-211800-
NORTHWEST NORTH DAKOTA

CITY           SKY/WX    TMP DP  RH WIND       PRES   REMARKS
WILLISTON      SUNNY     59  39  47 S15G21    30.07F
MINOT          SUNNY     55  40  56 S20       30.16F
MINOT AFB      SUNNY     53  41  62 S18G28    30.15S
$$

NDZ018>021-031>035-040>046-211800-
SOUTHWEST NORTH DAKOTA

CITY           SKY/WX    TMP DP  RH WIND       PRES   REMARKS
BISMARCK       SUNNY     59  35  40 SW21G30   30.23F
DICKINSON      SUNNY     54  39  57 S21       30.13F
GARRISON         N/A     52  41  66 S18       30.17F
HETTINGER ARPT MOSUNNY   54  36  50 S22G28    30.18F
$$

NDZ004>008-012>016-024-026-027-054-211800-
NORTHEAST NORTH DAKOTA

CITY           SKY/WX    TMP DP  RH WIND       PRES   REMARKS
GRAND FORKS    FAIR      50  44  80 S12       30.32F
GRND FRKS AFB  FAIR      51  44  76 S9        30.31F
DEVILS LAKE    FAIR      53  39  59 SW13      30.27F
$$

NDZ022-023-025-028>030-036>039-047>053-211800-
SOUTHEAST NORTH DAKOTA

CITY           SKY/WX    TMP DP  RH WIND       PRES   REMARKS
FARGO          FAIR      54  41  61 S12       30.34F
JAMESTOWN      SUNNY     56  40  55 S15       30.29F
$$





USA.gov is the U.S. government's official web portal to all federal, state and local government web resources and services.